Notices

What's New in latest Release from April 7th, 2021:

- Updated Glossary, including Speed of Maximum Gust, and Total Hourly Precipitation

- Updated national and regional climate services offices contacts and prices information

- Addition of station inventory lists for 1981-2010, 1971-2000, and 1961-1990 Normals.

If you haven't already, please take our survey and provide feedback about our website: https://eccc.sondage-survey.ca/f/LanguageSelection.aspx?s=442ca660-fcf1-47c0-95a9-59707d6fd709

Hourly Data Report for June 18, 2020

TRENTON A
ONTARIO
Current Station Operator: DND

44°07'00.000" N
77°32'00.000" W
86.30 m
6158875
71621
YTR

Download Data

Hourly Data (June 2020)
Hourly Data Report for June 18, 2020
TIME
LST
Temp Definition
°C
Dew Point Definition
°C
Rel Hum Definition
%
Precip. Amount Definition
mm

Wind Dir Definition
10's deg

Wind Spd Definition
km/h
Visibility Definition
km
Stn Press Definition
kPa
Hmdx Definition


Wind Chill Definition


Weather Definition


00:00 13.2 11.9 92   1 4 24.1 101.05     Clear
01:00 13.1 12.3 95     0 24.1 101.01     Clear
02:00 13.0 11.3 89     0 24.1 100.99     Mainly Clear
03:00 11.4 10.5 94   3 4 24.1 101.01     Mainly Clear
04:00 11.2 10.4 95     0 24.1 101.04     Mainly Clear
05:00 11.5 10.9 96   3 4 24.1 101.09     Mainly Clear
06:00 14.5 12.8 90     0 24.1 101.10     Mainly Clear
07:00 19.5 13.6 69   4 4 24.1 101.12     Mainly Clear
08:00 22.5 14.3 60   4 5 24.1 101.12 26   Mainly Clear
09:00 24.5 14.3 53   13 5 24.1 101.10 28   Clear
10:00 25.9 13.4 46   11 8 24.1 101.06 29   Clear
11:00 27.3 14.2 45   13 5 24.1 101.03 31   Clear
12:00 29.1 15.4 43   7 4 24.1 100.95 33   Clear
13:00 29.6 17.0 47   11 5 24.1 100.90 35   Mainly Clear
14:00 28.9 13.8 40   22 13 24.1 100.85 32   Mainly Clear
15:00 29.0 13.8 39   22 15 24.1 100.83 32   Mainly Clear
16:00 29.2 13.3 38   21 9 24.1 100.78 32   Mainly Clear
17:00 29.3 12.9 36   17 4 24.1 100.71 32   Mainly Clear
18:00 29.2 12.2 35     0 24.1 100.68 32   Mostly Cloudy
19:00 27.1 14.6 46   21 4 24.1 100.64 31   Mostly Cloudy
20:00 24.4 16.0 59     0 24.1 100.64 29   Mostly Cloudy
21:00 24.9 16.1 58   17 4 24.1 100.69 30   Mostly Cloudy
22:00 23.0 15.8 64     0 24.1 100.68 27   Mostly Cloudy
23:00 21.6 16.6 73   11 4 24.1 100.69 27   Mainly Clear

Notes on Data Quality.

Legend

  • E = Estimated
  • M = Missing
  • NA = Not Available*
  • [empty] = Indicates an unobserved value
Date modified: